Wilma — V2AB2 — position and weather

sailwx.info

Track history (hours):
 
Tides and Currents Weather Stations Pressure Air Temp Water Temp Dewpoint Dewpoint Depression Visibility Wind Speed Wind Dir Waves Ship Positions

Wilma

Last reported at 2014-Nov-23 20:33 UTC. Time now 2014-Nov-23 21:22 UTC.
Position N 40°29' E 003°02'.

Length 152 m; draft 6 m.

Type: Cargo ship. MMSI: 304080754.

Date/timePositionNaut miles runAvg speedWind from/ knotsBaromVisibWave heightAir tempDewpointWater temp
2014-Nov-23 20:33N 40°29' E 003°02'1918.8
2014-Nov-23 19:33N 40°37' E 002°40'1818.4
2014-Nov-23 18:33N 40°44' E 002°17'1818.1
2014-Nov-23 17:33N 40°51' E 001°55'3517.5
2014-Nov-23 15:33N 41°05' E 001°13'27 0.6
2014-Nov-21 21:25N 40°38' E 001°08'1719.4
2014-Nov-21 20:33N 40°21' E 001°05'1919.0
2014-Nov-21 19:33N 40°03' E 001°02'16818.4
2014-Nov-21 10:24N 37°32' W 000°33'2018.0
2014-Nov-21 09:18N 37°18' W 000°51'22217.4
2014-Nov-20 20:33N 36°01' W 005°10'  
2014-Nov-17 21:33N 49°35' W 000°21'1817.6
2014-Nov-17 20:34N 49°29' E 000°04'4 4.0
2014-Nov-17 19:33N 49°29' E 000°10'0 0.3
2014-Nov-17 18:31N 49°29' E 000°11'0 0.0
2014-Nov-17 17:33N 49°29' E 000°11'0 0.0
2014-Nov-17 16:33N 49°29' E 000°11'0 0.0
2014-Nov-17 15:33N 49°29' E 000°11'0 0.0
2014-Nov-17 14:33N 49°29' E 000°11'0 0.0
2014-Nov-17 13:33N 49°29' E 000°11'0 0.0
2014-Nov-17 12:31N 49°29' E 000°11'0 0.0
2014-Nov-17 11:33N 49°29' E 000°11'0 0.0
2014-Nov-17 10:33N 49°29' E 000°11'0 0.0
2014-Nov-17 09:33N 49°29' E 000°11'0 0.0
2014-Nov-17 08:32N 49°29' E 000°11'0 0.0
2014-Nov-17 07:30N 49°29' E 000°11'0 0.0
2014-Nov-17 06:27N 49°29' E 000°11'0 0.0
2014-Nov-17 05:33N 49°29' E 000°11'0 0.0
2014-Nov-17 04:32N 49°29' E 000°11'0 0.0
2014-Nov-17 03:31N 49°29' E 000°11'0 0.0
2014-Nov-17 02:27N 49°29' E 000°11'0 0.0
2014-Nov-17 01:26N 49°29' E 000°11'0 0.0
2014-Nov-17 00:32N 49°29' E 000°11'0 0.0
2014-Nov-16 23:33N 49°29' E 000°11'0 0.0
2014-Nov-16 22:33N 49°29' E 000°11'0 0.0
2014-Nov-16 21:25N 49°29' E 000°11'0 0.0
2014-Nov-16 20:33N 49°29' E 000°11'0 0.0
2014-Nov-16 19:33N 49°29' E 000°11'0 0.0
2014-Nov-16 18:33N 49°29' E 000°11'0 0.0
2014-Nov-16 17:33N 49°29' E 000°11'0 0.0
2014-Nov-16 16:33N 49°29' E 000°11'0 0.0
2014-Nov-16 15:33N 49°29' E 000°11'0 0.0
2014-Nov-16 14:33N 49°29' E 000°11'0 0.0
2014-Nov-16 13:33N 49°29' E 000°11'0 0.0
2014-Nov-16 12:33N 49°29' E 000°11'0 0.0
2014-Nov-16 11:33N 49°29' E 000°11'0 0.0
2014-Nov-16 10:25N 49°29' E 000°11'0 0.0
2014-Nov-16 09:31N 49°29' E 000°11'0 0.1
2014-Nov-16 08:33N 49°29' E 000°11'2 2.4
2014-Nov-16 07:33N 49°29' E 000°07'1010.5
2014-Nov-16 06:33N 49°35' W 000°05'5513.0
2014-Nov-16 02:21N 50°29' E 000°06'1113.3
2014-Nov-16 01:33N 50°33' E 000°21'1313.0
2014-Nov-16 00:33N 50°39' E 000°40'2013.6
2014-Nov-15 23:05N 50°52' E 001°04'815.0
2014-Nov-15 22:33N 50°57' E 001°14'1515.2
2014-Nov-15 21:33N 51°07' E 001°32'1413.9
2014-Nov-15 20:33N 51°17' E 001°48'1513.7
2014-Nov-15 19:29N 51°29' E 001°60'14114.0
2014-Nov-15 09:25N 53°17' E 004°29'1213.1
2014-Nov-15 08:30N 53°28' E 004°37'1314.2
2014-Nov-15 07:33N 53°34' E 004°58'1515.0
2014-Nov-15 06:33N 53°39' E 005°22'1515.1
2014-Nov-15 05:33N 53°44' E 005°46'6311.8
2014-Nov-15 00:11N 53°59' E 007°31'6 9.2
2014-Nov-14 23:33N 53°58' E 007°41'8 7.8
2014-Nov-14 22:32N 53°54' E 007°51'1 0.7
2014-Nov-14 20:33N 53°53' E 007°52'10 9.9
2014-Nov-14 19:33N 53°49' E 008°08'1110.9
2014-Nov-14 18:34N 53°41' E 008°21'10 9.6
2014-Nov-14 17:33N 53°34' E 008°32'3 3.1
2014-Nov-14 16:33N 53°32' E 008°35'1 1.3
2014-Nov-14 15:32N 53°30' E 008°35'0 0.0
2014-Nov-14 14:31N 53°30' E 008°35'0 0.0
2014-Nov-14 12:34N 53°30' E 008°35'0 0.0
2014-Nov-14 11:33N 53°30' E 008°35'0 0.0
2014-Nov-14 10:33N 53°30' E 008°35'  
Track history (hours):
 
Tides and Currents Weather Stations Pressure Air Temp Water Temp Dewpoint Dewpoint Depression Visibility Wind Speed Wind Dir Waves Ship Positions

Wilma

Last reported at 2014-Nov-23 20:33 UTC. Time now 2014-Nov-23 21:22 UTC.
Position N 40°29' E 003°02'.

Length 152 m; draft 6 m.

Type: Cargo ship. MMSI: 304080754.

Date/timePositionNaut miles runAvg speedWind from/ knotsBaromVisibWave heightAir tempDewpointWater temp
2014-Nov-23 20:33N 40°29' E 003°02'1918.8
2014-Nov-23 19:33N 40°37' E 002°40'1818.4
2014-Nov-23 18:33N 40°44' E 002°17'1818.1
2014-Nov-23 17:33N 40°51' E 001°55'3517.5
2014-Nov-23 15:33N 41°05' E 001°13'27 0.6
2014-Nov-21 21:25N 40°38' E 001°08'1719.4
2014-Nov-21 20:33N 40°21' E 001°05'1919.0
2014-Nov-21 19:33N 40°03' E 001°02'16818.4
2014-Nov-21 10:24N 37°32' W 000°33'2018.0
2014-Nov-21 09:18N 37°18' W 000°51'22217.4
2014-Nov-20 20:33N 36°01' W 005°10'  
2014-Nov-17 21:33N 49°35' W 000°21'1817.6
2014-Nov-17 20:34N 49°29' E 000°04'4 4.0
2014-Nov-17 19:33N 49°29' E 000°10'0 0.3
2014-Nov-17 18:31N 49°29' E 000°11'0 0.0
2014-Nov-17 17:33N 49°29' E 000°11'0 0.0
2014-Nov-17 16:33N 49°29' E 000°11'0 0.0
2014-Nov-17 15:33N 49°29' E 000°11'0 0.0
2014-Nov-17 14:33N 49°29' E 000°11'0 0.0
2014-Nov-17 13:33N 49°29' E 000°11'0 0.0
2014-Nov-17 12:31N 49°29' E 000°11'0 0.0
2014-Nov-17 11:33N 49°29' E 000°11'0 0.0
2014-Nov-17 10:33N 49°29' E 000°11'0 0.0
2014-Nov-17 09:33N 49°29' E 000°11'0 0.0
2014-Nov-17 08:32N 49°29' E 000°11'0 0.0
2014-Nov-17 07:30N 49°29' E 000°11'0 0.0
2014-Nov-17 06:27N 49°29' E 000°11'0 0.0
2014-Nov-17 05:33N 49°29' E 000°11'0 0.0
2014-Nov-17 04:32N 49°29' E 000°11'0 0.0
2014-Nov-17 03:31N 49°29' E 000°11'0 0.0
2014-Nov-17 02:27N 49°29' E 000°11'0 0.0
2014-Nov-17 01:26N 49°29' E 000°11'0 0.0
2014-Nov-17 00:32N 49°29' E 000°11'0 0.0
2014-Nov-16 23:33N 49°29' E 000°11'0 0.0
2014-Nov-16 22:33N 49°29' E 000°11'0 0.0
2014-Nov-16 21:25N 49°29' E 000°11'0 0.0
2014-Nov-16 20:33N 49°29' E 000°11'0 0.0
2014-Nov-16 19:33N 49°29' E 000°11'0 0.0
2014-Nov-16 18:33N 49°29' E 000°11'0 0.0
2014-Nov-16 17:33N 49°29' E 000°11'0 0.0
2014-Nov-16 16:33N 49°29' E 000°11'0 0.0
2014-Nov-16 15:33N 49°29' E 000°11'0 0.0
2014-Nov-16 14:33N 49°29' E 000°11'0 0.0
2014-Nov-16 13:33N 49°29' E 000°11'0 0.0
2014-Nov-16 12:33N 49°29' E 000°11'0 0.0
2014-Nov-16 11:33N 49°29' E 000°11'0 0.0
2014-Nov-16 10:25N 49°29' E 000°11'0 0.0
2014-Nov-16 09:31N 49°29' E 000°11'0 0.1
2014-Nov-16 08:33N 49°29' E 000°11'2 2.4
2014-Nov-16 07:33N 49°29' E 000°07'1010.5
2014-Nov-16 06:33N 49°35' W 000°05'5513.0
2014-Nov-16 02:21N 50°29' E 000°06'1113.3
2014-Nov-16 01:33N 50°33' E 000°21'1313.0
2014-Nov-16 00:33N 50°39' E 000°40'2013.6
2014-Nov-15 23:05N 50°52' E 001°04'815.0
2014-Nov-15 22:33N 50°57' E 001°14'1515.2
2014-Nov-15 21:33N 51°07' E 001°32'1413.9
2014-Nov-15 20:33N 51°17' E 001°48'1513.7
2014-Nov-15 19:29N 51°29' E 001°60'14114.0
2014-Nov-15 09:25N 53°17' E 004°29'1213.1
2014-Nov-15 08:30N 53°28' E 004°37'1314.2
2014-Nov-15 07:33N 53°34' E 004°58'1515.0
2014-Nov-15 06:33N 53°39' E 005°22'1515.1
2014-Nov-15 05:33N 53°44' E 005°46'6311.8
2014-Nov-15 00:11N 53°59' E 007°31'6 9.2
2014-Nov-14 23:33N 53°58' E 007°41'8 7.8
2014-Nov-14 22:32N 53°54' E 007°51'1 0.7
2014-Nov-14 20:33N 53°53' E 007°52'10 9.9
2014-Nov-14 19:33N 53°49' E 008°08'1110.9
2014-Nov-14 18:34N 53°41' E 008°21'10 9.6
2014-Nov-14 17:33N 53°34' E 008°32'3 3.1
2014-Nov-14 16:33N 53°32' E 008°35'1 1.3
2014-Nov-14 15:32N 53°30' E 008°35'0 0.0
2014-Nov-14 14:31N 53°30' E 008°35'0 0.0
2014-Nov-14 12:34N 53°30' E 008°35'0 0.0
2014-Nov-14 11:33N 53°30' E 008°35'0 0.0
2014-Nov-14 10:33N 53°30' E 008°35'  

Dump ship's entire track history